Simultaneous Nadir Overpasses (SNOs) Predictions

Prediction of SNOs between NOAA-20 and METOP-C Satellite Orbit:

Table of predicted SNOs for the next 14.0 days since TLE Epoch: 4/23/2022
Index Date (NOAA-20) Time (NOAA-20) Lat,Lon (NOAA-20) SZA (NOAA-20 ) Date (METOP-C) Time (METOP-C) Lat,Lon (METOP-C) SZA (METOP-C ) Distance(km) Time Diff (sec)
1 05/04/2022 11:13:17 73.51, 1.94 57.61 05/04/2022 11:14:22 73.49, 5.08 57.45 99.37 65
2 05/04/2022 12:03:59 -73.41, 169.48 122.51 05/04/2022 12:05:06 -73.34, 172.08 122.70 83.01 67
3 05/04/2022 12:54:41 73.22, -22.77 57.27 05/04/2022 12:55:50 73.17, -20.98 57.13 57.76 69
4 05/04/2022 13:45:23 -73.12, 144.77 122.86 05/04/2022 13:46:34 -73.02, 146.03 123.02 42.39 71
5 05/04/2022 14:36:05 72.92, -47.49 56.92 05/04/2022 14:37:18 72.84, -47.02 56.81 17.87 73
6 05/04/2022 15:26:47 -72.82, 120.03 123.20 05/04/2022 15:28:00 -72.80, 120.22 123.24 6.75 73
7 05/04/2022 16:17:32 72.77, -72.56 56.74 05/04/2022 16:18:41 72.77, -72.51 56.72 1.60 69
8 05/04/2022 17:08:16 -72.77, 94.75 123.27 05/04/2022 17:09:22 -72.77, 94.83 123.29 2.58 66
9 05/04/2022 17:59:01 72.72, -97.83 56.67 05/04/2022 18:00:03 72.74, -97.90 56.68 3.00 62
10 05/04/2022 18:49:45 -72.73, 69.48 123.34 05/04/2022 18:50:44 -72.75, 69.44 123.33 2.75 59
11 05/04/2022 19:40:31 72.73,-123.22 56.65 05/04/2022 19:41:25 72.72,-123.29 56.64 2.46 54
12 05/04/2022 20:31:15 -72.73, 44.09 123.36 05/04/2022 20:32:06 -72.73, 44.06 123.37 1.29 51
13 05/04/2022 21:22:00 72.73,-148.60 56.64 05/04/2022 21:22:45 72.75,-148.57 56.64 1.98 45
14 05/04/2022 22:12:44 -72.73, 18.71 123.37 05/04/2022 22:13:26 -72.75, 18.77 123.36 3.01 42
15 05/04/2022 23:03:30 72.74,-173.98 56.62 05/04/2022 23:04:07 72.72,-173.96 56.60 1.59 37
16 05/04/2022 23:54:14 -72.74, -6.67 123.39 05/04/2022 23:54:48 -72.73, -6.61 123.40 2.11 34
17 05/05/2022 00:44:59 72.69, 160.74 56.55 05/05/2022 00:45:29 72.70, 160.66 56.56 3.06 30
18 05/05/2022 01:35:43 -72.69, -31.95 123.46 05/05/2022 01:36:10 -72.71, -32.00 123.45 2.43 27
19 05/05/2022 02:26:29 72.69, 135.36 56.54 05/05/2022 02:26:51 72.68, 135.27 56.52 3.47 22
20 05/05/2022 03:17:13 -72.70, -57.33 123.47 05/05/2022 03:17:32 -72.68, -57.39 123.49 2.22 19
21 05/05/2022 04:07:59 72.70, 109.97 56.52 05/05/2022 04:08:12 72.70, 109.98 56.53 0.87 13
22 05/05/2022 04:58:43 -72.70, -82.71 123.49 05/05/2022 04:58:53 -72.71, -82.67 123.48 2.00 10
23 05/05/2022 05:49:29 72.70, 84.59 56.51 05/05/2022 05:49:34 72.68, 84.60 56.48 2.25 5
24 05/05/2022 06:40:13 -72.70,-108.10 123.51 05/05/2022 06:40:15 -72.69,-108.06 123.52 2.10 2
25 05/05/2022 07:30:58 72.65, 59.31 56.43 05/05/2022 07:30:56 72.66, 59.21 56.44 3.47 2
26 05/05/2022 08:21:42 -72.66,-133.38 123.58 05/05/2022 08:21:37 -72.67,-133.44 123.56 2.49 5
27 05/05/2022 09:12:28 72.66, 33.93 56.42 05/05/2022 09:12:17 72.69, 33.93 56.45 2.96 11
28 05/05/2022 10:03:12 -72.66,-158.76 123.59 05/05/2022 10:02:59 -72.64,-158.83 123.61 3.19 13
29 05/05/2022 10:53:58 72.66, 8.55 56.40 05/05/2022 10:53:39 72.66, 8.54 56.41 0.34 19
30 05/05/2022 11:44:42 -72.67, 175.86 123.61 05/05/2022 11:44:20 -72.67, 175.89 123.60 1.02 22
31 05/05/2022 12:35:28 72.67, -16.83 56.39 05/05/2022 12:35:01 72.64, -16.85 56.36 3.20 27
32 05/05/2022 13:26:12 -72.67, 150.48 123.62 05/05/2022 13:25:42 -72.65, 150.50 123.64 2.56 30
33 05/05/2022 14:16:58 72.67, -42.22 56.37 05/05/2022 14:16:22 72.67, -42.13 56.37 2.87 36
34 05/05/2022 15:07:41 -72.62, 125.20 123.69 05/05/2022 15:07:04 -72.62, 125.11 123.68 2.89 37
35 05/05/2022 15:58:27 72.62, -67.50 56.30 05/05/2022 15:57:44 72.64, -67.52 56.33 2.19 43
36 05/05/2022 16:49:11 -72.63, 99.82 123.71 05/05/2022 16:48:25 -72.65, 99.83 123.68 2.79 46
37 05/05/2022 17:39:57 72.63, -92.88 56.29 05/05/2022 17:39:06 72.62, -92.91 56.29 1.41 51
38 05/05/2022 18:30:41 -72.63, 74.43 123.73 05/05/2022 18:29:47 -72.63, 74.44 123.72 0.37 54
39 05/05/2022 19:21:27 72.63,-118.26 56.27 05/05/2022 19:20:27 72.65,-118.19 56.29 2.81 60
40 05/05/2022 20:12:11 -72.63, 49.05 123.74 05/05/2022 20:11:09 -72.61, 49.05 123.76 3.29 62
41 05/05/2022 21:02:57 72.64,-143.64 56.25 05/05/2022 21:01:49 72.62,-143.58 56.25 2.64 68
42 05/05/2022 21:53:41 -72.64, 23.67 123.76 05/05/2022 21:52:30 -72.63, 23.77 123.75 3.47 71
43 05/05/2022 22:44:26 72.59,-168.92 56.18 05/05/2022 22:43:11 72.60,-168.97 56.21 1.80 75
44 05/05/2022 23:35:08 -72.49, -1.41 123.94 05/05/2022 23:33:54 -72.51, -1.82 123.89 14.04 74
45 05/06/2022 00:25:50 72.29, 166.31 55.84 05/06/2022 00:24:39 72.27, 165.04 55.89 43.03 71
46 05/06/2022 01:16:32 -72.19, -26.18 124.28 05/06/2022 01:15:22 -72.18, -27.81 124.20 55.29 70
47 05/06/2022 02:07:14 71.98, 141.52 55.50 05/06/2022 02:06:06 71.99, 139.16 55.62 81.10 68
48 05/06/2022 02:57:56 -71.89, -50.98 124.62 05/06/2022 02:56:49 -71.90, -53.68 124.47 93.23 67



Historial Predications of SNOs between NOAA-20 and METOP-C
